LZ3VG Weather Reports


Display with metric or nautical units.
time (UTC)temp
F
wind
direction
speed
MPH
gust
MPH
rain 1hr
in
rain 24hr
in
rain mn
in
humidity
%
barometer
mb
20260507105034 60 43 3.0 9.0 0.00 0.00 0.00 82 1018.0
20260507104026 60 39 3.0 9.0 0.00 0.00 0.00 81 1018.0
20260507103018 60 55 3.0 9.0 0.00 0.00 0.00 82 1018.1
20260507102026 60 69 3.0 9.0 0.00 0.00 0.00 81 1018.2
20260507101019 60 60 3.0 10.0 0.00 0.00 0.00 81 1018.2
20260507100026 60 79 3.0 8.0 0.00 0.00 0.00 80 1018.1
20260507095018 60 67 3.0 6.0 0.00 0.00 0.00 81 1018.1
20260507094042 60 34 2.0 7.0 0.00 0.00 0.00 80 1018.2
20260507093052 59 34 2.0 3.0 0.00 0.00 0.00 81 1018.2
20260507092026 59 48 3.0 8.0 0.00 0.00 0.00 82 1018.3
20260507091038 59 61 3.0 9.0 0.00 0.00 0.00 83 1018.3
20260507090042 58 61 2.0 6.0 0.00 0.00 0.00 84 1018.4
20260507085020 58 53 3.0 9.0 0.00 0.00 0.00 85 1018.3
20260507084043 57 58 3.0 9.0 0.00 0.00 0.00 85 1018.3
20260507083034 56 54 3.0 8.0 0.00 0.00 0.00 87 1018.3
20260507082029 58 71 3.0 10.0 0.00 0.00 0.00 84 1018.3
20260507081018 56 67 3.0 7.0 0.00 0.00 0.00 84 1018.3
20260507080042 56 75 3.0 8.0 0.00 0.00 0.00 86 1018.3
20260507075034 57 75 4.0 7.0 0.00 0.00 0.00 82 1018.4
20260507074027 56 70 2.0 6.0 0.00 0.00 0.00 84 1018.5
20260507073018 58 80 3.0 6.0 0.00 0.00 0.00 81 1018.4
20260507072033 57 124 1.0 3.0 0.00 0.00 0.00 81 1018.4
20260507071034 57 180 2.0 5.0 0.00 0.00 0.00 82 1018.5
20260507070026 56 119 2.0 6.0 0.00 0.00 0.00 84 1018.6
20260507065018 54 73 2.0 5.0 0.00 0.00 0.00 89 1018.3
20260507064042 53 66 1.0 3.0 0.00 0.00 0.00 95 1018.4
20260507063034 53 57 0.0 2.0 0.00 0.00 0.00 99 1018.4
20260507062026 51 8 1.0 2.0 0.00 0.00 0.00 99 1018.5
20260507061018 50 161 3.0 6.0 0.00 0.00 0.00 99 1018.5
20260507060043 49 130 2.0 6.0 0.00 0.00 0.00 99 1018.5
20260507055019 49 27 1.0 2.0 0.00 0.00 0.00 99 1018.5
20260507054026 49 7 0.0 1.0 0.00 0.00 0.00 99 1018.5
20260507053018 48 41 0.0 1.0 0.00 0.00 0.00 99 1018.4
20260507052042 48 309 1.0 2.0 0.00 0.00 0.00 99 1018.3
20260507051032 47 253 1.0 3.0 0.00 0.00 0.00 99 1018.4
20260507050026 47 248 1.0 2.0 0.00 0.00 0.00 99 1018.3
20260507045037 47 333 0.0 1.0 0.00 0.00 0.00 99 1018.1
20260507044026 47 240 1.0 2.0 0.00 0.00 0.00 99 1018.2
20260507043018 47 334 1.0 2.0 0.00 0.00 0.00 99 1017.9
20260507042042 46 263 1.0 3.0 0.00 0.00 0.00 99 1018.0
20260507041035 46 284 1.0 3.0 0.00 0.00 0.00 99 1018.0
20260507040028 46 250 1.0 3.0 0.00 0.00 0.00 99 1017.8
20260507035019 46 339 0.0 1.0 0.00 0.00 0.00 99 1017.5
20260507034105 46 98 1.0 2.0 0.00 0.00 0.00 99 1017.4
20260507033034 46 0.0 0.0 0.00 0.00 0.00 99 1017.5
20260507032027 46 3 0.0 1.0 0.00 0.00 0.00 99 1017.5
20260507031019 45 321 0.0 2.0 0.00 0.00 0.00 99 1017.5
20260507025034 45 346 2.0 3.0 0.00 0.00 0.00 99 1017.4
20260507024032 45 356 1.0 1.0 0.00 0.00 0.00 99 1017.2
20260507023035 45 293 1.0 3.0 0.00 0.00 0.00 99 1017.2
20260507022026 45 311 1.0 3.0 0.00 0.00 0.00 99 1017.3
20260507021018 45 244 1.0 3.0 0.00 0.00 0.00 99 1017.3
20260507020043 46 285 2.0 3.0 0.00 0.00 0.00 99 1017.1
20260507015035 46 327 1.0 2.0 0.00 0.00 0.00 99 1017.2
20260507014046 46 0.0 0.0 0.00 0.00 0.00 99 1017.0
20260507013018 46 247 1.0 3.0 0.00 0.00 0.00 99 1016.8
20260507012043 46 124 1.0 3.0 0.00 0.00 0.00 99 1016.8
20260507011019 46 111 1.0 2.0 0.00 0.00 0.00 99 1016.7
20260507010029 47 110 1.0 2.0 0.00 0.00 0.00 99 1016.9
20260507005055 46 59 0.0 1.0 0.00 0.00 0.00 99 1016.9
20260507004100 46 0.0 0.0 0.00 0.00 0.00 99 1016.9
20260507003051 47 14 0.0 1.0 0.00 0.00 0.00 99 1016.8
20260507002043 47 188 0.0 1.0 0.00 0.00 0.00 99 1016.8
20260507001018 47 235 1.0 3.0 0.00 0.00 0.00 99 1016.8
20260507000043 47 338 1.0 2.0 0.00 0.00 0.00 98 1016.8
20260506235035 48 3 1.0 2.0 0.00 0.00 0.00 98 1016.6
20260506234027 49 331 1.0 2.0 0.00 0.00 0.00 97 1016.9
20260506233019 49 66 1.0 2.0 0.00 0.00 0.00 96 1016.8
20260506232042 49 132 2.0 3.0 0.00 0.00 0.00 94 1016.8
20260506231018 50 104 1.0 3.0 0.00 0.00 0.00 93 1016.9
20260506230043 50 0.0 0.0 0.00 0.00 0.00 92 1016.8
20260506225019 50 66 0.0 1.0 0.00 0.00 0.00 92 1016.9
20260506224027 50 116 1.0 2.0 0.00 0.00 0.00 95 1016.9
20260506223035 51 63 1.0 1.0 0.00 0.00 0.00 97 1017.1
20260506222043 51 51 1.0 3.0 0.00 0.00 0.00 97 1017.1
20260506221037 51 38 1.0 2.0 0.00 0.00 0.00 96 1017.2
20260506220043 52 48 2.0 6.0 0.00 0.00 0.00 97 1017.3
20260506215035 52 43 1.0 3.0 0.00 0.00 0.00 97 1017.4
20260506214100 52 48 2.0 5.0 0.00 0.00 0.00 97 1017.2
20260506213021 52 54 1.0 3.0 0.00 0.00 0.00 97 1017.3
20260506212043 52 51 2.0 5.0 0.00 0.00 0.00 96 1017.1
20260506211035 52 59 2.0 5.0 0.00 0.00 0.00 96 1017.1
20260506210033 53 35 2.0 6.0 0.00 0.00 0.00 96 1017.1
20260506205051 53 55 2.0 5.0 0.00 0.00 0.00 96 1017.2
20260506204106 53 49 2.0 6.0 0.00 0.00 0.00 96 1016.9
20260506203019 53 37 1.0 3.0 0.00 0.00 0.00 95 1016.9
20260506202027 53 56 2.0 6.0 0.00 0.00 0.00 95 1017.1
20260506201019 53 49 2.0 5.0 0.00 0.00 0.00 94 1017.1
20260506200027 53 44 1.0 3.0 0.00 0.00 0.00 94 1017.0
20260506195019 53 41 1.0 5.0 0.00 0.00 0.00 94 1017.1
20260506194028 53 55 2.0 5.0 0.00 0.00 0.00 94 1017.0
20260506193059 53 30 1.0 2.0 0.00 0.00 0.00 94 1016.9
20260506192028 53 62 1.0 5.0 0.00 0.00 0.00 93 1017.0
20260506191035 53 38 2.0 3.0 0.00 0.00 0.00 94 1016.8
20260506190043 53 27 2.0 5.0 0.00 0.00 0.00 94 1016.9
20260506185035 53 61 2.0 5.0 0.00 0.00 0.00 94 1016.7
20260506184032 53 47 3.0 7.0 0.00 0.00 0.00 95 1016.7
20260506181526 53 41 2.0 5.0 0.00 0.00 0.00 94 1016.5
20260506180547 54 51 2.0 5.0 0.00 0.00 0.00 94 1016.5
20260506175536 54 50 2.0 5.0 0.00 0.00 0.00 93 1016.3
20260506174533 54 46 3.0 6.0 0.00 0.00 0.00 93 1016.2
20260506173539 54 44 3.0 6.0 0.00 0.00 0.00 92 1016.1
20260506172551 54 65 2.0 7.0 0.00 0.00 0.00 92 1016.3
20260506171540 55 34 3.0 7.0 0.00 0.00 0.00 92 1016.1
20260506170607 55 52 3.0 7.0 0.00 0.00 0.00 92 1016.0
20260506165559 55 71 3.0 7.0 0.00 0.00 0.00 90 1016.0
20260506164531 56 58 3.0 7.0 0.00 0.00 0.00 89 1015.9
20260506163540 56 40 3.0 8.0 0.00 0.00 0.00 87 1015.9
20260506162531 57 38 3.0 6.0 0.00 0.00 0.00 85 1016.0
20260506161543 57 49 4.0 10.0 0.00 0.00 0.00 83 1015.9
20260506160624 58 62 2.0 5.0 0.00 0.00 0.00 83 1015.9
20260506155524 58 41 3.0 7.0 0.00 0.00 0.00 83 1015.8
20260506154554 58 47 3.0 7.0 0.00 0.00 0.00 81 1015.9
20260506153523 59 49 3.0 8.0 0.00 0.00 0.00 79 1016.0
20260506152532 59 22 4.0 9.0 0.00 0.00 0.00 78 1015.9
20260506151539 59 59 4.0 7.0 0.00 0.00 0.00 77 1016.1
20260506150531 59 41 3.0 10.0 0.00 0.00 0.00 77 1016.1
20260506145541 59 36 3.0 7.0 0.00 0.00 0.00 77 1016.1
20260506144531 60 64 3.0 9.0 0.00 0.00 0.00 77 1016.2
20260506143555 60 52 3.0 7.0 0.00 0.00 0.00 75 1016.1
20260506142547 60 56 5.0 10.0 0.00 0.00 0.00 75 1016.3
20260506141540 61 54 4.0 9.0 0.00 0.00 0.00 73 1016.1
20260506140531 61 71 4.0 10.0 0.00 0.00 0.00 73 1016.2
20260506135543 61 48 4.0 11.0 0.00 0.00 0.00 72 1016.2
20260506134532 60 59 5.0 10.0 0.00 0.00 0.00 72 1016.1
20260506133556 62 41 5.0 11.0 0.00 0.00 0.00 69 1016.1
20260506132548 62 48 4.0 10.0 0.00 0.00 0.00 68 1016.0
20260506131523 62 34 5.0 11.0 0.00 0.00 0.00 66 1016.0
20260506130547 62 71 6.0 13.0 0.00 0.00 0.00 63 1016.1
20260506125524 63 54 4.0 8.0 0.00 0.00 0.00 61 1016.2
20260506124547 63 67 6.0 13.0 0.00 0.00 0.00 57 1016.2
20260506123524 64 47 6.0 11.0 0.00 0.00 0.00 54 1016.3
20260506122533 64 57 4.0 8.0 0.00 0.00 0.00 55 1016.4
20260506121523 64 51 4.0 11.0 0.00 0.00 0.00 57 1016.4
20260506120534 63 43 5.0 13.0 0.00 0.00 0.00 58 1016.4
20260506115540 63 42 3.0 9.0 0.00 0.00 0.00 59 1016.7
20260506114548 62 35 5.0 11.0 0.00 0.00 0.00 62 1016.7
20260506113539 62 50 6.0 14.0 0.00 0.00 0.00 62 1016.7
20260506112531 63 25 5.0 10.0 0.00 0.00 0.00 61 1016.7
20260506111523 63 40 4.0 13.0 0.00 0.00 0.00 60 1016.7
20260506110532 65 35 2.0 5.0 0.00 0.00 0.00 57 1016.8
20260506105524 64 50 3.0 9.0 0.00 0.00 0.00 57 1016.7